Wind_Speed
40 40 40 40 41 40 40 40 40 41 41 42 42 42 42 42 43 43 43 42 42 42 43 43 44 44 45 44 44 44 44 44 44 43 44 44 44 45 46 46 46 46 48
42 41 40 40 40 40 41 41 41 41 42 42 43 43 43 43 43 42 42 42 43 43 43 44 44 45 45 44 44 43 44 44 44 43 44 44 44 45 46 46 47 47 47
44 43 42 41 41 41 41 41 42 42 42 43 43 43 43 42 42 43 43 43 43 43 43 43 44 44 44 44 43 44 43 43 43 44 44 44 43 44 44 45 46 46 47
44 44 43 43 42 42 42 42 42 42 43 43 43 43 43 43 43 43 43 43 43 43 43 43 42 43 43 43 44 44 44 45 45 44 44 44 43 44 44 44 45 46 47
44 43 43 43 43 43 43 43 43 43 42 43 43 43 43 43 43 43 43 43 42 42 42 42 42 42 43 43 44 44 44 45 45 45 44 43 43 43 44 45 46 46 47
44 44 43 44 44 44 44 44 43 43 43 43 44 44 44 44 44 44 44 43 43 42 42 42 42 42 42 42 42 44 44 44 44 44 44 44 43 44 44 45 46 45 46
44 44 44 44 44 44 44 43 43 43 43 44 44 44 44 44 44 45 44 44 43 42 42 41 41 42 42 42 42 43 43 44 44 44 44 44 44 44 44 44 45 45 45
43 43 44 45 44 44 44 44 44 44 44 44 44 44 44 44 44 44 44 43 43 42 42 41 41 40 41 42 41 42 42 42 42 43 43 43 43 44 44 44 45 45 45
42 43 44 44 44 44 44 44 43 43 44 43 43 43 43 43 43 42 42 42 41 41 41 41 41 40 40 41 41 41 40 40 40 41 41 41 41 41 42 42 43 45 45
41 42 42 42 43 43 43 43 43 43 42 42 42 41 41 41 41 41 41 40 40 40 39 39 39 39 39 40 40 40 40 40 39 39 40 40 41 41 41 41 42 43 43
40 41 41 41 40 41 41 41 41 41 41 40 40 40 40 40 40 39 39 38 38 38 37 37 37 37 38 38 38 38 38 39 39 39 39 40 41 41 41 41 42 42 42
39 39 39 39 39 39 39 39 39 39 38 38 38 38 38 38 37 38 37 37 37 37 37 36 36 36 37 37 37 37 37 37 38 38 39 39 40 40 41 41 41 42 41
37 37 37 37 37 37 37 36 36 36 36 36 36 36 37 37 37 37 36 36 36 36 36 36 36 36 36 37 37 37 37 38 38 37 37 38 39 39 40 40 40 40 40
36 35 35 35 35 35 34 34 34 33 33 34 34 34 34 35 35 36 36 35 35 36 36 35 35 35 35 35 36 36 37 37 38 38 38 38 38 38 38 38 38 38 39
33 33 33 32 32 33 33 32 32 32 32 32 33 33 33 33 33 34 35 35 36 35 35 35 35 34 35 35 35 36 37 37 37 37 37 37 37 37 37 37 37 37 38
31 30 30 30 30 31 31 31 31 31 30 30 31 32 32 32 32 32 33 34 34 35 35 35 34 34 34 34 34 34 34 34 35 35 36 36 36 36 37 37 36 37 37
32 31 30 30 30 30 30 29 30 30 30 29 29 30 30 30 31 32 32 32 31 32 32 32 32 32 32 32 33 33 33 33 33 33 34 34 35 35 35 36 36 36 37
32 32 31 29 29 29 29 29 29 29 29 28 29 29 29 29 29 30 30 30 30 30 30 30 31 31 31 31 32 32 32 32 32 32 33 34 34 34 34 35 36 36 36
30 30 30 30 29 29 29 29 29 29 29 28 28 28 28 28 28 29 29 28 28 28 28 29 29 30 31 31 31 32 32 32 32 33 33 34 34 34 35 35 35 35 35
29 29 29 29 29 29 30 29 29 28 29 28 28 28 28 28 27 27 28 28 27 27 27 28 29 29 30 30 31 32 32 32 32 33 34 34 34 34 34 35 35 34 35
27 27 29 30 30 30 29 29 29 29 28 27 27 26 26 26 26 26 26 26 26 26 27 28 28 29 29 30 30 30 31 31 32 33 33 33 33 33 34 34 34 34 34
25 26 27 28 29 29 29 29 29 28 28 27 27 26 26 26 26 26 26 26 26 27 27 28 28 29 29 29 30 30 30 31 32 32 33 33 33 33 32 32 32 32 32
25 25 25 26 27 27 28 28 27 27 27 27 27 26 26 26 26 26 27 27 27 27 27 27 28 28 29 29 30 30 30 31 32 32 32 32 32 31 31 31 30 30 30
24 24 24 25 26 26 26 26 26 27 27 27 27 27 27 27 26 26 26 27 27 27 27 28 28 28 29 29 29 29 30 31 31 31 31 31 30 30 30 29 29 29 29
24 24 24 25 25 26 26 26 26 26 27 27 27 27 27 27 26 26 26 26 27 27 27 27 28 28 28 28 29 29 30 30 30 30 30 30 29 29 29 29 29 29 29
24 24 24 25 26 26 26 26 26 27 27 26 27 27 27 27 27 27 27 27 28 28 28 28 28 28 28 28 28 29 29 29 30 30 29 29 29 29 29 29 29 29 29
Wind_Direction
254 255 255 255 255 255 255 255 255 255 256 257 258 259 259 260 261 261 261 261 263 264 264 264 264 263 264 266 267 267 268 268 269 267 266 265 265 265 266 266 266 266 266
254 255 255 254 254 255 255 256 257 257 258 259 259 260 260 260 260 261 261 263 264 264 264 265 265 264 264 265 266 267 267 268 269 268 267 267 267 267 266 266 265 266 266
253 254 255 255 256 256 256 257 257 258 259 259 260 261 262 262 262 262 263 263 264 264 265 265 265 265 264 265 266 266 266 267 269 269 268 268 269 269 268 266 266 266 266
254 254 255 255 256 256 257 257 258 259 260 260 260 261 262 261 262 263 263 264 264 265 265 265 266 266 266 266 266 266 266 268 269 270 269 269 270 270 269 267 266 267 268
253 254 255 255 256 256 257 258 259 260 260 261 261 261 261 261 262 262 263 264 265 265 265 266 266 266 266 266 266 266 267 267 268 269 269 269 270 270 268 267 268 268 268
253 254 254 254 255 256 257 258 260 261 261 261 262 262 262 262 262 262 263 264 264 265 265 265 266 266 266 266 267 267 266 267 267 268 268 268 271 271 269 269 269 268 268
254 255 255 255 256 256 257 259 260 261 262 262 262 262 262 262 262 263 263 263 263 264 265 265 265 265 265 265 266 266 266 267 267 268 267 268 270 271 270 269 269 269 269
254 256 257 258 258 258 258 259 261 262 263 264 264 263 262 262 262 262 262 263 263 263 265 265 265 266 266 266 266 266 267 267 267 267 267 268 269 270 271 270 270 270 270
254 255 257 258 258 259 260 260 262 262 262 263 263 263 262 261 261 261 261 262 263 264 264 265 266 265 266 267 267 267 267 268 268 268 268 268 270 271 272 271 270 270 271
255 256 257 258 258 259 260 261 262 262 262 261 262 261 260 260 261 261 261 261 262 264 265 265 267 267 266 266 267 267 267 268 269 269 269 269 270 272 272 272 273 273 273
257 257 258 259 259 260 261 260 261 261 261 261 260 260 260 259 259 260 261 262 263 264 264 266 266 266 265 265 266 268 269 268 270 271 270 270 271 272 272 273 274 274 275
259 259 258 258 258 259 260 261 261 260 259 259 259 258 258 258 258 259 260 262 263 264 265 266 266 265 265 265 266 267 267 269 271 272 271 271 271 272 273 274 275 277 278
259 259 258 257 258 258 259 260 260 259 258 257 257 256 256 256 256 257 259 261 262 263 265 265 265 264 264 265 265 266 268 269 270 271 271 272 272 273 275 276 276 277 277
260 259 258 257 257 257 257 258 257 257 256 256 256 256 257 257 257 257 258 259 260 261 263 264 265 265 264 264 265 267 269 269 271 272 272 272 273 275 275 276 277 277 276
260 258 256 255 255 255 256 255 256 256 256 255 255 256 257 258 259 259 259 260 261 262 262 263 264 264 264 265 267 268 269 269 271 272 273 274 275 275 276 277 277 276 277
258 258 257 255 254 254 254 254 255 255 255 256 256 256 257 258 259 259 260 261 262 262 262 263 265 265 265 266 268 269 269 270 272 273 273 274 275 275 276 276 278 278 278
259 258 256 255 254 252 252 253 254 254 254 255 256 256 256 257 258 259 260 260 260 260 261 262 263 264 265 267 268 268 269 271 273 273 274 275 275 275 275 276 277 278 277
258 256 254 253 252 251 251 252 253 252 253 254 255 256 256 255 256 258 258 258 259 259 260 262 263 265 266 267 268 269 270 271 272 274 275 276 275 274 274 276 277 277 276
255 254 252 250 250 250 250 251 251 251 252 252 253 254 255 255 256 255 256 258 259 259 261 263 264 266 266 267 268 269 271 272 273 274 276 277 276 275 275 276 277 277 277
254 253 252 250 249 250 251 250 251 251 250 251 253 254 255 257 257 256 256 257 258 260 261 263 265 267 267 268 269 270 272 273 274 275 277 277 277 277 277 277 277 277 277
254 253 252 249 248 249 250 250 249 249 249 250 252 254 255 256 256 255 256 257 259 261 263 265 267 269 270 270 270 272 273 273 274 276 276 276 277 277 278 278 278 278 278
254 253 252 249 248 248 248 249 249 249 249 250 250 251 253 254 255 256 258 260 261 264 266 267 269 270 270 271 272 273 274 275 276 277 277 277 277 278 278 278 277 278 278
251 251 251 250 249 247 246 246 246 246 247 248 249 250 252 254 255 257 259 261 263 265 267 269 271 272 272 273 273 274 275 276 278 279 278 278 277 277 278 279 278 279 279
250 250 250 250 249 246 244 244 244 244 245 247 248 250 253 255 256 258 259 261 263 266 268 270 272 273 274 274 273 274 276 277 279 279 278 277 277 277 278 279 279 279 279
249 249 249 249 247 244 243 244 244 244 245 247 249 251 252 254 256 259 261 263 265 267 269 271 273 274 274 274 275 275 276 277 278 278 277 277 277 277 278 279 279 280 280
251 249 248 247 245 244 243 243 244 245 247 248 250 252 253 255 258 260 263 264 266 267 269 271 273 274 275 276 276 276 277 278 279 278 278 277 277 277 278 280 280 281 281
Height
5626 5628 5630 5632 5634 5636 5638 5640 5642 5644 5645 5647 5648 5650 5651 5653 5654 5655 5657 5658 5659 5660 5661 5662 5663 5663 5664 5665 5665 5666 5666 5667 5668 5670 5670 5671 5671 5672 5672 5673 5673 5674 5675
5615 5617 5619 5622 5624 5626 5628 5630 5632 5633 5635 5636 5638 5639 5640 5641 5643 5644 5645 5646 5647 5648 5649 5650 5651 5651 5652 5653 5654 5654 5655 5656 5657 5658 5659 5659 5660 5660 5660 5661 5661 5662 5663
5604 5606 5609 5611 5613 5615 5617 5619 5621 5623 5624 5625 5627 5628 5629 5630 5631 5633 5634 5635 5636 5637 5638 5638 5639 5640 5640 5641 5642 5643 5644 5644 5645 5645 5646 5647 5648 5648 5648 5649 5649 5650 5650
5593 5595 5598 5600 5602 5604 5606 5608 5610 5612 5613 5614 5616 5617 5618 5619 5621 5622 5623 5624 5625 5626 5626 5627 5628 5628 5629 5630 5630 5631 5632 5632 5633 5634 5634 5635 5636 5636 5636 5637 5637 5638 5638
5581 5584 5586 5588 5591 5593 5595 5597 5599 5600 5602 5603 5604 5606 5607 5608 5609 5610 5611 5612 5613 5614 5615 5616 5616 5617 5618 5618 5619 5619 5620 5621 5621 5622 5623 5623 5624 5624 5624 5624 5625 5626 5626
5569 5572 5574 5577 5579 5581 5583 5585 5587 5589 5590 5591 5593 5594 5595 5597 5598 5598 5599 5601 5602 5603 5604 5605 5605 5606 5606 5607 5607 5608 5608 5609 5610 5610 5611 5611 5612 5612 5612 5612 5613 5613 5614
5557 5560 5562 5564 5567 5569 5571 5573 5575 5576 5578 5579 5580 5582 5583 5585 5585 5587 5587 5589 5590 5591 5592 5593 5594 5594 5595 5595 5596 5596 5597 5597 5598 5599 5599 5600 5600 5600 5600 5600 5600 5601 5602
5546 5548 5550 5552 5555 5557 5559 5561 5562 5564 5565 5567 5568 5569 5571 5573 5573 5575 5576 5577 5578 5580 5581 5582 5582 5583 5583 5584 5585 5585 5586 5586 5586 5587 5588 5588 5588 5588 5588 5588 5588 5589 5589
5534 5536 5538 5540 5542 5544 5546 5548 5550 5551 5553 5554 5556 5557 5559 5560 5561 5562 5564 5565 5567 5568 5569 5570 5571 5571 5572 5573 5573 5574 5575 5575 5575 5575 5576 5576 5576 5577 5576 5576 5576 5576 5577
5523 5525 5526 5528 5530 5532 5534 5536 5538 5539 5541 5542 5544 5545 5547 5548 5550 5551 5552 5554 5556 5557 5558 5559 5559 5560 5560 5561 5562 5563 5564 5564 5565 5565 5565 5565 5565 5565 5565 5564 5564 5564 5564
5511 5513 5514 5516 5518 5520 5522 5524 5525 5527 5529 5530 5532 5534 5535 5537 5539 5540 5541 5543 5544 5546 5547 5548 5548 5549 5549 5550 5551 5552 5553 5553 5554 5554 5554 5554 5554 5554 5553 5553 5552 5552 5552
5501 5502 5503 5504 5506 5508 5510 5512 5514 5515 5517 5519 5521 5522 5524 5526 5528 5530 5531 5532 5534 5535 5537 5537 5538 5538 5539 5540 5540 5541 5542 5542 5543 5543 5543 5543 5543 5543 5542 5541 5541 5540 5540
5490 5491 5492 5494 5495 5497 5499 5501 5502 5504 5506 5508 5510 5512 5514 5516 5517 5519 5521 5522 5523 5525 5526 5527 5527 5528 5528 5529 5530 5530 5531 5532 5532 5532 5532 5532 5532 5531 5530 5530 5529 5528 5528
5479 5481 5482 5484 5485 5487 5489 5490 5492 5494 5496 5498 5500 5502 5504 5505 5507 5509 5510 5512 5513 5514 5515 5516 5517 5517 5518 5518 5519 5520 5520 5521 5521 5521 5521 5521 5520 5520 5519 5518 5518 5517 5517
5469 5471 5472 5474 5476 5477 5479 5481 5482 5484 5486 5488 5490 5492 5494 5496 5497 5499 5500 5502 5503 5504 5505 5506 5507 5507 5508 5508 5509 5509 5510 5510 5510 5510 5510 5510 5509 5509 5508 5507 5507 5506 5506
5460 5461 5463 5465 5467 5468 5470 5472 5473 5475 5477 5479 5481 5482 5484 5486 5487 5489 5490 5491 5492 5494 5495 5496 5496 5497 5498 5498 5499 5499 5499 5499 5499 5499 5499 5499 5499 5498 5498 5497 5496 5496 5496
5450 5452 5453 5455 5457 5459 5461 5463 5465 5467 5468 5470 5472 5473 5475 5476 5478 5479 5481 5482 5483 5484 5485 5486 5487 5487 5488 5489 5489 5489 5490 5489 5489 5489 5489 5489 5488 5488 5487 5487 5486 5486 5485
5440 5442 5444 5446 5448 5450 5452 5454 5456 5458 5460 5462 5463 5465 5466 5468 5469 5470 5472 5473 5474 5475 5476 5477 5477 5478 5479 5479 5479 5480 5480 5480 5480 5480 5479 5479 5478 5478 5477 5477 5476 5475 5475
5430 5432 5435 5437 5439 5441 5444 5446 5448 5450 5452 5454 5455 5457 5458 5459 5461 5462 5463 5464 5465 5466 5467 5467 5468 5469 5469 5470 5470 5470 5470 5470 5470 5470 5470 5469 5468 5468 5467 5466 5465 5465 5464
5421 5423 5425 5428 5430 5432 5435 5437 5439 5441 5443 5445 5447 5449 5450 5451 5452 5454 5455 5456 5457 5458 5458 5459 5459 5460 5460 5460 5460 5460 5461 5460 5460 5460 5459 5459 5458 5457 5456 5456 5455 5454 5453
5413 5415 5417 5419 5421 5424 5426 5428 5430 5433 5435 5437 5439 5441 5442 5443 5444 5446 5447 5448 5449 5450 5450 5450 5451 5451 5451 5451 5451 5451 5451 5451 5450 5450 5449 5448 5448 5447 5446 5445 5445 5444 5443
5405 5406 5408 5410 5412 5415 5417 5420 5422 5424 5427 5429 5431 5432 5434 5435 5437 5438 5439 5440 5441 5441 5442 5442 5442 5442 5442 5442 5442 5442 5441 5441 5441 5440 5439 5438 5438 5437 5436 5435 5435 5434 5433
5397 5399 5400 5402 5404 5406 5409 5411 5414 5416 5419 5421 5423 5424 5426 5427 5429 5430 5431 5432 5432 5433 5433 5433 5433 5433 5433 5433 5432 5432 5432 5431 5431 5430 5429 5429 5428 5427 5427 5426 5425 5424 5423
5390 5391 5393 5395 5397 5399 5401 5403 5406 5408 5411 5413 5415 5416 5418 5419 5420 5421 5422 5423 5424 5424 5424 5424 5424 5424 5424 5423 5423 5423 5422 5422 5421 5420 5420 5419 5418 5418 5417 5417 5416 5415 5414
5383 5384 5386 5388 5389 5391 5394 5396 5398 5400 5403 5405 5406 5408 5410 5411 5412 5413 5414 5415 5415 5416 5416 5416 5415 5415 5415 5414 5414 5414 5413 5412 5412 5411 5410 5410 5409 5409 5408 5407 5407 5406 5405
5375 5377 5378 5380 5382 5384 5386 5388 5390 5393 5395 5396 5398 5400 5401 5402 5404 5405 5405 5406 5407 5407 5407 5407 5407 5406 5406 5406 5405 5404 5404 5403 5403 5402 5401 5401 5400 5400 5399 5398 5398 5397 5396